Location: Newark
(44.1667°N, 8.2500°E)
Time: 11:08:02
(UTC+00:00)

S-56A Canister/Altair - Pass Details

Date: 18 December 2019
Orbit: 634 x 2498 km, 38.9° (Epoch: 25 January)

Event Time Altitude Azimuth Distance (km) Brightness Sun altitude
Rises 09:37:22 0° 262° (W) 5,417 11.7 18.2°
Reaches altitude 10° 09:40:35 10° 260° (W) 4,611 11.4 18.5°
Maximum altitude 09:54:08 72° 180° (S) 2,557 10.8 19.4°
Drops below altitude 10° 10:09:04 10° 101° (E) 5,036 12.2 20.3°
Sets 10:12:46 0° 99° (E) 5,923 12.4 20.5°
